Regional Weather Roundup
Issued by NWS Albany, NY

Home | Current Version | Previous Version | Graphics & Text | Print | Product List | Glossary Off
Versions: 1 2 3 4 5 6 7 8 9 10 11 12 13 14 15 16 17 18 19 20 21 22 23 24 25 26 27 28 29 30 31 32 33 34 35 36 37 38 39 40 41 42 43 44 45 46 47 48 49 50

000
ASUS41 KALY 180210
RWRALY

NEW YORK STATE HOURLY WEATHER ROUNDUP
NATIONAL WEATHER SERVICE ALBANY NY
1000 PM EDT TUE OCT 17 2017

NOTE: "FAIR" INDICATES FEW OR NO CLOUDS BELOW 12,000 FEET WITH NO
SIGNIFICANT WEATHER AND/OR NO OBSTRUCTIONS TO VISIBILITY.

NYZ032-033-038>043-046>054-057>066-NYZ062>081-082-084-180300-
EAST


CITY           SKY/WX    TMP DP  RH WIND       PRES   REMARKS
ALBANY         CLEAR     48  34  58 S9        30.21R
GLENS FALLS    CLEAR     39  33  79 CALM      30.19R
POUGHKEEPSIE   CLEAR     41  36  82 CALM      30.25R
NEWBURGH       CLEAR     48  37  66 W5        30.27R
MONTGOMERY     CLEAR     40  37  89 SW3       30.25R
WHITE PLAINS   CLEAR     51  39  63 S3        30.27R
ISLIP          CLEAR     46  40  79 CALM      30.29S
NEW YORK CITY  CLEAR     56  38  50 SW10      30.28S
CENTRAL PARK   CLEAR     55  37  50 MISG      30.31R
$$

NYZ005>009-017-018-044>046-055-056-180300-
CENTRAL


CITY           SKY/WX    TMP DP  RH WIND       PRES   REMARKS
FULTON         MOCLDY    48  42  80 S5        30.15R
SYRACUSE       PTCLDY    51  38  60 SW6       30.16R
ROME           CLEAR     44  38  79 E5        30.19R
ELMIRA         CLEAR     42  39  89 CALM      30.20R
BINGHAMTON     CLEAR     48  34  58 SW7       30.21R
MONTICELLO     CLEAR     42  32  67 CALM      30.26R
$$

NYZ026>034-041>043-087-180300-
NORTH


CITY           SKY/WX    TMP DP  RH WIND       PRES   REMARKS
WATERTOWN      PTCLDY    57  41  55 S12G20    30.10S
FORT DRUM      NOT AVBL
OGDENSBURG     FAIR      54  43  66 S10       30.06R
MASSENA        CLOUDY    56  42  59 SW17G24   30.04F
SARANAC LAKE   CLEAR     46  37  71 SW9       30.09R
PLATTSBURGH    CLEAR     48  35  60 S7        30.09R
$$

NYZ001>004-010>016-019>021-085-180300-
WEST


CITY           SKY/WX    TMP DP  RH WIND       PRES   REMARKS
NIAGARA FALLS  CLEAR     62  47  57 SW14      30.15R
BUFFALO        PTCLDY    54  41  61 S13       30.17R
DUNKIRK        PTCLDY    55  41  59 S8        30.20R
JAMESTOWN      CLEAR     51  38  60 SW7       30.23R
WELLSVILLE     CLEAR     52  36  54 SW10G20   30.23R
ROCHESTER      PTCLDY    51  42  71 SW6       30.16R
$$

             KEY
       WCI = WIND CHILL INDEX
       VSB = VISIBILITY
       HX  = HEAT INDEX
$$



USA.gov is the U.S. government's official web portal to all federal, state and local government web resources and services.